Year,Month,Day,Hour,Minute,Value (Times are PST for temperature in C)
2016,08,20,00,00,17.90
2016,08,20,00,01,17.90
2016,08,20,00,02,17.90
2016,08,20,00,03,17.90
2016,08,20,00,04,17.90
2016,08,20,00,05,17.90
2016,08,20,00,06,17.90
2016,08,20,00,07,17.90
2016,08,20,00,08,17.80
2016,08,20,00,09,17.80
2016,08,20,00,10,17.80
2016,08,20,00,11,17.80
2016,08,20,00,12,17.80
2016,08,20,00,13,17.80
2016,08,20,00,14,17.80
2016,08,20,00,15,17.80
2016,08,20,00,16,17.80
2016,08,20,00,17,17.80
2016,08,20,00,18,17.80
2016,08,20,00,19,17.80
2016,08,20,00,20,17.80
2016,08,20,00,21,17.80
2016,08,20,00,22,17.80
2016,08,20,00,23,17.80
2016,08,20,00,24,17.80
2016,08,20,00,25,17.80
2016,08,20,00,26,17.80
2016,08,20,00,27,17.80
2016,08,20,00,28,17.80
2016,08,20,00,29,17.70
2016,08,20,00,30,17.70
2016,08,20,00,31,17.70
2016,08,20,00,32,17.70
2016,08,20,00,33,17.70
2016,08,20,00,34,17.70
2016,08,20,00,35,17.70
2016,08,20,00,36,17.70
2016,08,20,00,37,17.70
2016,08,20,00,38,17.70
2016,08,20,00,39,17.70
2016,08,20,00,40,17.70
2016,08,20,00,41,17.70
2016,08,20,00,42,17.60
2016,08,20,00,43,17.60
2016,08,20,00,44,17.60
2016,08,20,00,45,17.60
2016,08,20,00,46,17.60
2016,08,20,00,47,17.60
2016,08,20,00,48,17.60
2016,08,20,00,49,17.50
2016,08,20,00,50,17.50
2016,08,20,00,51,17.50
2016,08,20,00,52,17.50
2016,08,20,00,53,17.50
2016,08,20,00,54,17.50
2016,08,20,00,55,17.50
2016,08,20,00,56,17.50
2016,08,20,00,57,17.40
2016,08,20,00,58,17.40
2016,08,20,00,59,17.40
2016,08,20,01,00,17.40
2016,08,20,01,01,17.40
2016,08,20,01,02,17.40
2016,08,20,01,03,17.40
2016,08,20,01,04,17.30
2016,08,20,01,05,17.30
2016,08,20,01,06,17.30
2016,08,20,01,07,17.30
2016,08,20,01,08,17.30
2016,08,20,01,09,17.20
2016,08,20,01,10,17.20
2016,08,20,01,11,17.20
2016,08,20,01,12,17.20
2016,08,20,01,13,17.10
2016,08,20,01,14,17.10
2016,08,20,01,15,17.10
2016,08,20,01,16,17.10
2016,08,20,01,17,17.10
2016,08,20,01,18,17.10
2016,08,20,01,19,17.10
2016,08,20,01,20,17.10
2016,08,20,01,21,17.10
2016,08,20,01,22,17.10
2016,08,20,01,23,17.10
2016,08,20,01,24,17.00
2016,08,20,01,25,17.00
2016,08,20,01,26,17.00
2016,08,20,01,27,17.00
2016,08,20,01,28,17.00
2016,08,20,01,29,17.00
2016,08,20,01,30,16.90
2016,08,20,01,31,16.90
2016,08,20,01,32,16.90
2016,08,20,01,33,16.90
2016,08,20,01,34,16.90
2016,08,20,01,35,16.90
2016,08,20,01,36,16.90
2016,08,20,01,37,16.80
2016,08,20,01,38,16.80
2016,08,20,01,39,16.80
2016,08,20,01,40,16.80
2016,08,20,01,41,16.80
2016,08,20,01,42,16.80
2016,08,20,01,43,16.80
2016,08,20,01,44,16.80
2016,08,20,01,45,16.80
2016,08,20,01,46,16.80
2016,08,20,01,47,16.80
2016,08,20,01,48,16.80
2016,08,20,01,49,16.80
2016,08,20,01,50,16.80
2016,08,20,01,51,16.80
2016,08,20,01,52,16.80
2016,08,20,01,53,16.80
2016,08,20,01,54,16.70
2016,08,20,01,55,16.70
2016,08,20,01,56,16.70
2016,08,20,01,57,16.80
2016,08,20,01,58,16.80
2016,08,20,01,59,16.80
2016,08,20,02,00,16.80
2016,08,20,02,01,16.80
2016,08,20,02,02,16.80
2016,08,20,02,03,16.80
2016,08,20,02,04,16.80
2016,08,20,02,05,16.80
2016,08,20,02,06,16.80
2016,08,20,02,07,16.80
2016,08,20,02,08,16.80
2016,08,20,02,09,16.80
2016,08,20,02,10,16.80
2016,08,20,02,11,16.80
2016,08,20,02,12,16.80
2016,08,20,02,13,16.80
2016,08,20,02,14,16.80
2016,08,20,02,15,16.70
2016,08,20,02,16,16.70
2016,08,20,02,17,16.70
2016,08,20,02,18,16.70
2016,08,20,02,19,16.60
2016,08,20,02,20,16.60
2016,08,20,02,21,16.60
2016,08,20,02,22,16.60
2016,08,20,02,23,16.60
2016,08,20,02,24,16.60
2016,08,20,02,25,16.60
2016,08,20,02,26,16.60
2016,08,20,02,27,16.60
2016,08,20,02,28,16.60
2016,08,20,02,29,16.60
2016,08,20,02,30,16.60
2016,08,20,02,31,16.60
2016,08,20,02,32,16.60
2016,08,20,02,33,16.60
2016,08,20,02,34,16.60
2016,08,20,02,35,16.60
2016,08,20,02,36,16.60
2016,08,20,02,37,16.60
2016,08,20,02,38,16.60
2016,08,20,02,39,16.50
2016,08,20,02,40,16.50
2016,08,20,02,41,16.50
2016,08,20,02,42,16.50
2016,08,20,02,43,16.40
2016,08,20,02,44,16.40
2016,08,20,02,45,16.40
2016,08,20,02,46,16.40
2016,08,20,02,47,16.40
2016,08,20,02,48,16.40
2016,08,20,02,49,16.40
2016,08,20,02,50,16.30
2016,08,20,02,51,16.30
2016,08,20,02,52,16.30
2016,08,20,02,53,16.30
2016,08,20,02,54,16.30
2016,08,20,02,55,16.20
2016,08,20,02,56,16.20
2016,08,20,02,57,16.20
2016,08,20,02,58,16.20
2016,08,20,02,59,16.20
2016,08,20,03,00,16.10
2016,08,20,03,01,16.10
2016,08,20,03,02,16.10
2016,08,20,03,03,16.10
2016,08,20,03,04,16.10
2016,08,20,03,05,16.20
2016,08,20,03,06,16.20
2016,08,20,03,07,16.20
2016,08,20,03,08,16.20
2016,08,20,03,09,16.30
2016,08,20,03,10,16.30
2016,08,20,03,11,16.30
2016,08,20,03,12,16.30
2016,08,20,03,13,16.30
2016,08,20,03,14,16.30
2016,08,20,03,15,16.30
2016,08,20,03,16,16.30
2016,08,20,03,17,16.30
2016,08,20,03,18,16.30
2016,08,20,03,19,16.20
2016,08,20,03,20,16.20
2016,08,20,03,21,16.20
2016,08,20,03,22,16.20
2016,08,20,03,23,16.20
2016,08,20,03,24,16.20
2016,08,20,03,25,16.20
2016,08,20,03,26,16.20
2016,08,20,03,27,16.20
2016,08,20,03,28,16.20
2016,08,20,03,29,16.20
2016,08,20,03,30,16.20
2016,08,20,03,31,16.20
2016,08,20,03,32,16.20
2016,08,20,03,33,16.20
2016,08,20,03,34,16.20
2016,08,20,03,35,16.20
2016,08,20,03,36,16.10
2016,08,20,03,37,16.10
2016,08,20,03,38,16.10
2016,08,20,03,39,16.10
2016,08,20,03,40,16.00
2016,08,20,03,41,16.00
2016,08,20,03,42,16.00
2016,08,20,03,43,15.90
2016,08,20,03,44,15.90
2016,08,20,03,45,15.90
2016,08,20,03,46,15.90
2016,08,20,03,47,15.90
2016,08,20,03,48,15.90
2016,08,20,03,49,15.90
2016,08,20,03,50,15.90
2016,08,20,03,51,15.90
2016,08,20,03,52,15.90
2016,08,20,03,53,15.90
2016,08,20,03,54,15.90
2016,08,20,03,55,15.90
2016,08,20,03,56,15.90
2016,08,20,03,57,15.90
2016,08,20,03,58,15.90
2016,08,20,03,59,15.80
2016,08,20,04,00,15.80
2016,08,20,04,01,15.80
2016,08,20,04,02,15.80
2016,08,20,04,03,15.80
2016,08,20,04,04,15.80
2016,08,20,04,05,15.80
2016,08,20,04,06,15.80
2016,08,20,04,07,15.80
2016,08,20,04,08,15.80
2016,08,20,04,09,15.80
2016,08,20,04,10,15.80
2016,08,20,04,11,15.80
2016,08,20,04,12,15.80
2016,08,20,04,13,15.80
2016,08,20,04,14,15.70
2016,08,20,04,15,15.70
2016,08,20,04,16,15.70
2016,08,20,04,17,15.70
2016,08,20,04,18,15.70
2016,08,20,04,19,15.70
2016,08,20,04,20,15.70
2016,08,20,04,21,15.70
2016,08,20,04,22,15.70
2016,08,20,04,23,15.70
2016,08,20,04,24,15.70
2016,08,20,04,25,15.70
2016,08,20,04,26,15.70
2016,08,20,04,27,15.70
2016,08,20,04,28,15.70
2016,08,20,04,29,15.70
2016,08,20,04,30,15.70
2016,08,20,04,31,15.70
2016,08,20,04,32,15.70
2016,08,20,04,33,15.70
2016,08,20,04,34,15.70
2016,08,20,04,35,15.70
2016,08,20,04,36,15.70
2016,08,20,04,37,15.70
2016,08,20,04,38,15.70
2016,08,20,04,39,15.70
2016,08,20,04,40,15.70
2016,08,20,04,41,15.70
2016,08,20,04,42,15.70
2016,08,20,04,43,15.70
2016,08,20,04,44,15.70
2016,08,20,04,45,15.60
2016,08,20,04,46,15.60
2016,08,20,04,47,15.60
2016,08,20,04,48,15.60
2016,08,20,04,49,15.60
2016,08,20,04,50,15.50
2016,08,20,04,51,15.50
2016,08,20,04,52,15.50
2016,08,20,04,53,15.40
2016,08,20,04,54,15.40
2016,08,20,04,55,15.40
2016,08,20,04,56,15.40
2016,08,20,04,57,15.40
2016,08,20,04,58,15.40
2016,08,20,04,59,15.40
2016,08,20,05,00,15.40
2016,08,20,05,01,15.40
2016,08,20,05,02,15.40
2016,08,20,05,03,15.40
2016,08,20,05,04,15.30
2016,08,20,05,05,15.30
2016,08,20,05,06,15.30
2016,08,20,05,07,15.30
2016,08,20,05,08,15.30
2016,08,20,05,09,15.30
2016,08,20,05,10,15.30
2016,08,20,05,11,15.30
2016,08,20,05,12,15.30
2016,08,20,05,13,15.30
2016,08,20,05,14,15.30
2016,08,20,05,15,15.30
2016,08,20,05,16,15.30
2016,08,20,05,17,15.30
2016,08,20,05,18,15.30
2016,08,20,05,19,15.30
2016,08,20,05,20,15.30
2016,08,20,05,21,15.30
2016,08,20,05,22,15.30
2016,08,20,05,23,15.30
2016,08,20,05,24,15.30
2016,08,20,05,25,15.30
2016,08,20,05,26,15.30
2016,08,20,05,27,15.30
2016,08,20,05,28,15.30
2016,08,20,05,29,15.30
2016,08,20,05,30,15.30
2016,08,20,05,31,15.30
2016,08,20,05,32,15.30
2016,08,20,05,33,15.30
2016,08,20,05,34,15.30
2016,08,20,05,35,15.30
2016,08,20,05,36,15.30
2016,08,20,05,37,15.30
2016,08,20,05,38,15.30
2016,08,20,05,39,15.30
2016,08,20,05,40,15.20
2016,08,20,05,41,15.20
2016,08,20,05,42,15.20
2016,08,20,05,43,15.30
2016,08,20,05,44,15.30
2016,08,20,05,45,15.30
2016,08,20,05,46,15.30
2016,08,20,05,47,15.30
2016,08,20,05,48,15.30
2016,08,20,05,49,15.30
2016,08,20,05,50,15.30
2016,08,20,05,51,15.30
2016,08,20,05,52,15.30
2016,08,20,05,53,15.30
2016,08,20,05,54,15.30
2016,08,20,05,55,15.30
2016,08,20,05,56,15.30
2016,08,20,05,57,15.30
2016,08,20,05,58,15.30
2016,08,20,05,59,15.30
2016,08,20,06,00,15.30
2016,08,20,06,01,15.30
2016,08,20,06,02,15.30
2016,08,20,06,03,15.30
2016,08,20,06,04,15.30
2016,08,20,06,05,15.30
2016,08,20,06,06,15.30
2016,08,20,06,07,15.40
2016,08,20,06,08,15.40
2016,08,20,06,09,15.40
2016,08,20,06,10,15.40
2016,08,20,06,11,15.40
2016,08,20,06,12,15.40
2016,08,20,06,13,15.40
2016,08,20,06,14,15.40
2016,08,20,06,15,15.40
2016,08,20,06,16,15.40
2016,08,20,06,17,15.40
2016,08,20,06,18,15.40
2016,08,20,06,19,15.40
2016,08,20,06,20,15.40
2016,08,20,06,21,15.40
2016,08,20,06,22,15.40
2016,08,20,06,23,15.40
2016,08,20,06,24,15.40
2016,08,20,06,25,15.40
2016,08,20,06,26,15.40
2016,08,20,06,27,15.40
2016,08,20,06,28,15.40
2016,08,20,06,29,15.40
2016,08,20,06,30,15.40
2016,08,20,06,31,15.40
2016,08,20,06,32,15.30
2016,08,20,06,33,15.30
2016,08,20,06,34,15.30
2016,08,20,06,35,15.30
2016,08,20,06,36,15.30
2016,08,20,06,37,15.30
2016,08,20,06,38,15.30
2016,08,20,06,39,15.30
2016,08,20,06,40,15.30
2016,08,20,06,41,15.30
2016,08,20,06,42,15.30
2016,08,20,06,43,15.30
2016,08,20,06,44,15.30
2016,08,20,06,45,15.30
2016,08,20,06,46,15.30
2016,08,20,06,47,15.30
2016,08,20,06,48,15.40
2016,08,20,06,49,15.40
2016,08,20,06,50,15.40
2016,08,20,06,51,15.40
2016,08,20,06,52,15.50
2016,08,20,06,53,15.50
2016,08,20,06,54,15.50
2016,08,20,06,55,15.60
2016,08,20,06,56,15.60
2016,08,20,06,57,15.60
2016,08,20,06,58,15.70
2016,08,20,06,59,15.70
2016,08,20,07,00,15.80
2016,08,20,07,01,15.80
2016,08,20,07,02,15.90
2016,08,20,07,03,16.00
2016,08,20,07,04,16.10
2016,08,20,07,05,16.20
2016,08,20,07,06,16.30
2016,08,20,07,07,16.40
2016,08,20,07,08,16.50
2016,08,20,07,09,16.60
2016,08,20,07,10,16.60
2016,08,20,07,11,16.70
2016,08,20,07,12,16.80
2016,08,20,07,13,16.90
2016,08,20,07,14,16.90
2016,08,20,07,15,17.00
2016,08,20,07,16,17.00
2016,08,20,07,17,17.10
2016,08,20,07,18,17.20
2016,08,20,07,19,17.20
2016,08,20,07,20,17.30
2016,08,20,07,21,17.30
2016,08,20,07,22,17.40
2016,08,20,07,23,17.50
2016,08,20,07,24,17.50
2016,08,20,07,25,17.60
2016,08,20,07,26,17.70
2016,08,20,07,27,17.80
2016,08,20,07,28,17.80
2016,08,20,07,29,17.90
2016,08,20,07,30,17.90
2016,08,20,07,31,18.00
2016,08,20,07,32,18.00
2016,08,20,07,33,18.10
2016,08,20,07,34,18.10
2016,08,20,07,35,18.10
2016,08,20,07,36,18.10
2016,08,20,07,37,18.20
2016,08,20,07,38,18.30
2016,08,20,07,39,18.40
2016,08,20,07,40,18.50
2016,08,20,07,41,18.60
2016,08,20,07,42,18.80
2016,08,20,07,43,18.90
2016,08,20,07,44,19.00
2016,08,20,07,45,19.10
2016,08,20,07,46,19.10
2016,08,20,07,47,19.20
2016,08,20,07,48,19.30
2016,08,20,07,49,19.40
2016,08,20,07,50,19.60
2016,08,20,07,51,19.70
2016,08,20,07,52,19.90
2016,08,20,07,53,20.00
2016,08,20,07,54,20.20
2016,08,20,07,55,20.30
2016,08,20,07,56,20.30
2016,08,20,07,57,20.40
2016,08,20,07,58,20.50
2016,08,20,07,59,20.60
2016,08,20,08,00,20.70
2016,08,20,08,01,20.80
2016,08,20,08,02,20.80
2016,08,20,08,03,20.90
2016,08,20,08,04,21.00
2016,08,20,08,05,21.00
2016,08,20,08,06,21.10
2016,08,20,08,07,21.10
2016,08,20,08,08,21.20
2016,08,20,08,09,21.20
2016,08,20,08,10,21.20
2016,08,20,08,11,21.30
2016,08,20,08,12,21.40
2016,08,20,08,13,21.40
2016,08,20,08,14,21.50
2016,08,20,08,15,21.50
2016,08,20,08,16,21.60
2016,08,20,08,17,21.70
2016,08,20,08,18,21.70
2016,08,20,08,19,21.80
2016,08,20,08,20,21.80
2016,08,20,08,21,21.80
2016,08,20,08,22,21.90
2016,08,20,08,23,21.90
2016,08,20,08,24,21.90
2016,08,20,08,25,22.00
2016,08,20,08,26,22.00
2016,08,20,08,27,22.00
2016,08,20,08,28,22.10
2016,08,20,08,29,22.10
2016,08,20,08,30,22.20
2016,08,20,08,31,22.20
2016,08,20,08,32,22.20
2016,08,20,08,33,22.30
2016,08,20,08,34,22.30
2016,08,20,08,35,22.30
2016,08,20,08,36,22.40
2016,08,20,08,37,22.40
2016,08,20,08,38,22.40
2016,08,20,08,39,22.50
2016,08,20,08,40,22.50
2016,08,20,08,41,22.60
2016,08,20,08,42,22.60
2016,08,20,08,43,22.60
2016,08,20,08,44,22.60
2016,08,20,08,45,22.60
2016,08,20,08,46,22.70
2016,08,20,08,47,22.70
2016,08,20,08,48,22.70
2016,08,20,08,49,22.80
2016,08,20,08,50,22.80
2016,08,20,08,51,22.90
2016,08,20,08,52,22.90
2016,08,20,08,53,22.90
2016,08,20,08,54,23.00
2016,08,20,08,55,23.00
2016,08,20,08,56,23.00
2016,08,20,08,57,23.10
2016,08,20,08,58,23.10
2016,08,20,08,59,23.10
2016,08,20,09,00,23.10
2016,08,20,09,01,23.10
2016,08,20,09,02,23.10
2016,08,20,09,03,23.20
2016,08,20,09,04,23.20
2016,08,20,09,05,23.20
2016,08,20,09,06,23.30
2016,08,20,09,07,23.30
2016,08,20,09,08,23.30
2016,08,20,09,09,23.40
2016,08,20,09,10,23.40
2016,08,20,09,11,23.50
2016,08,20,09,12,23.50
2016,08,20,09,13,23.60
2016,08,20,09,14,23.60
2016,08,20,09,15,23.70
2016,08,20,09,16,23.70
2016,08,20,09,17,23.80
2016,08,20,09,18,23.90
2016,08,20,09,19,23.90
2016,08,20,09,20,23.90
2016,08,20,09,21,23.90
2016,08,20,09,22,23.90
2016,08,20,09,23,23.90
2016,08,20,09,24,23.90
2016,08,20,09,25,23.90
2016,08,20,09,26,23.80
2016,08,20,09,27,23.80
2016,08,20,09,28,23.90
2016,08,20,09,29,23.90
2016,08,20,09,30,24.00
2016,08,20,09,31,24.00
2016,08,20,09,32,24.00
2016,08,20,09,33,24.10
2016,08,20,09,34,24.10
2016,08,20,09,35,24.10
2016,08,20,09,36,24.10
2016,08,20,09,37,24.20
2016,08,20,09,38,24.20
2016,08,20,09,39,24.20
2016,08,20,09,40,24.20
2016,08,20,09,41,24.30
2016,08,20,09,42,24.30
2016,08,20,09,43,24.30
2016,08,20,09,44,24.30
2016,08,20,09,45,24.30
2016,08,20,09,46,24.30
2016,08,20,09,47,24.40
2016,08,20,09,48,24.40
2016,08,20,09,49,24.40
2016,08,20,09,50,24.50
2016,08,20,09,51,24.50
2016,08,20,09,52,24.60
2016,08,20,09,53,24.60
2016,08,20,09,54,24.70
2016,08,20,09,55,24.70
2016,08,20,09,56,24.70
2016,08,20,09,57,24.70
2016,08,20,09,58,24.70
2016,08,20,09,59,24.70
2016,08,20,10,00,24.70
2016,08,20,10,01,24.70
2016,08,20,10,02,24.80
2016,08,20,10,03,24.80
2016,08,20,10,04,24.80
2016,08,20,10,05,24.80
2016,08,20,10,06,24.80
2016,08,20,10,07,24.80
2016,08,20,10,08,24.90
2016,08,20,10,09,25.00
2016,08,20,10,10,25.00
2016,08,20,10,11,25.00
2016,08,20,10,12,25.00
2016,08,20,10,13,25.10
2016,08,20,10,14,25.10
2016,08,20,10,15,25.00
2016,08,20,10,16,25.00
2016,08,20,10,17,25.00
2016,08,20,10,18,25.00
2016,08,20,10,19,25.10
2016,08,20,10,20,25.10
2016,08,20,10,21,25.20
2016,08,20,10,22,25.20
2016,08,20,10,23,25.30
2016,08,20,10,24,25.30
2016,08,20,10,25,25.40
2016,08,20,10,26,25.40
2016,08,20,10,27,25.50
2016,08,20,10,28,25.50
2016,08,20,10,29,25.60
2016,08,20,10,30,25.60
2016,08,20,10,31,25.70
2016,08,20,10,32,25.70
2016,08,20,10,33,25.70
2016,08,20,10,34,25.80
2016,08,20,10,35,25.80
2016,08,20,10,36,25.80
2016,08,20,10,37,25.80
2016,08,20,10,38,25.80
2016,08,20,10,39,25.80
2016,08,20,10,40,25.80
2016,08,20,10,41,25.80
2016,08,20,10,42,25.80
2016,08,20,10,43,25.80
2016,08,20,10,44,25.80
2016,08,20,10,45,25.80
2016,08,20,10,46,25.80
2016,08,20,10,47,25.80
2016,08,20,10,48,25.80
2016,08,20,10,49,25.80
2016,08,20,10,50,25.90
2016,08,20,10,51,26.00
2016,08,20,10,52,26.00
2016,08,20,10,53,26.10
2016,08,20,10,54,26.20
2016,08,20,10,55,26.20
2016,08,20,10,56,26.30
2016,08,20,10,57,26.30
2016,08,20,10,58,26.40
2016,08,20,10,59,26.40
2016,08,20,11,00,26.40
2016,08,20,11,01,26.40
2016,08,20,11,02,26.40
2016,08,20,11,03,26.50
2016,08,20,11,04,26.50
2016,08,20,11,05,26.50
2016,08,20,11,06,26.60
2016,08,20,11,07,26.60
2016,08,20,11,08,26.60
2016,08,20,11,09,26.60
2016,08,20,11,10,26.60
2016,08,20,11,11,26.60
2016,08,20,11,12,26.60
2016,08,20,11,13,26.70
2016,08,20,11,14,26.70
2016,08,20,11,15,26.80
2016,08,20,11,16,26.80
2016,08,20,11,17,26.90
2016,08,20,11,18,26.90
2016,08,20,11,19,26.90
2016,08,20,11,20,27.00
2016,08,20,11,21,27.00
2016,08,20,11,22,27.10
2016,08,20,11,23,27.20
2016,08,20,11,24,27.30
2016,08,20,11,25,27.40
2016,08,20,11,26,27.50
2016,08,20,11,27,27.50
2016,08,20,11,28,27.60
2016,08,20,11,29,27.60
2016,08,20,11,30,27.70
2016,08,20,11,31,27.70
2016,08,20,11,32,27.80
2016,08,20,11,33,27.80
2016,08,20,11,34,27.70
2016,08,20,11,35,27.70
2016,08,20,11,36,27.70
2016,08,20,11,37,27.70
2016,08,20,11,38,27.60
2016,08,20,11,39,27.50
2016,08,20,11,40,27.50
2016,08,20,11,41,27.50
2016,08,20,11,42,27.50
2016,08,20,11,43,27.50
2016,08,20,11,44,27.50
2016,08,20,11,45,27.50
2016,08,20,11,46,27.50
2016,08,20,11,47,27.50
2016,08,20,11,48,27.50
2016,08,20,11,49,27.40
2016,08,20,11,50,27.30
2016,08,20,11,51,27.20
2016,08,20,11,52,27.20
2016,08,20,11,53,27.10
2016,08,20,11,54,27.10
2016,08,20,11,55,27.00
2016,08,20,11,56,27.00
2016,08,20,11,57,27.00
2016,08,20,11,58,27.00
2016,08,20,11,59,27.00
2016,08,20,12,00,26.90
2016,08,20,12,01,26.90
2016,08,20,12,02,26.90
2016,08,20,12,03,26.90
2016,08,20,12,04,26.90
2016,08,20,12,05,26.90
2016,08,20,12,06,26.90
2016,08,20,12,07,26.90
2016,08,20,12,08,27.00
2016,08,20,12,09,27.00
2016,08,20,12,10,27.00
2016,08,20,12,11,27.00
2016,08,20,12,12,27.00
2016,08,20,12,13,26.90
2016,08,20,12,14,26.90
2016,08,20,12,15,26.80
2016,08,20,12,16,26.80
2016,08,20,12,17,26.80
2016,08,20,12,18,26.80
2016,08,20,12,19,26.70
2016,08,20,12,20,26.70
2016,08,20,12,21,26.60
2016,08,20,12,22,26.50
2016,08,20,12,23,26.40
2016,08,20,12,24,26.20
2016,08,20,12,25,26.10
2016,08,20,12,26,25.90
2016,08,20,12,27,25.80
2016,08,20,12,28,25.70
2016,08,20,12,29,25.60
2016,08,20,12,30,25.60
2016,08,20,12,31,25.60
2016,08,20,12,32,25.50
2016,08,20,12,33,25.50
2016,08,20,12,34,25.40
2016,08,20,12,35,25.40
2016,08,20,12,36,25.30
2016,08,20,12,37,25.30
2016,08,20,12,38,25.30
2016,08,20,12,39,25.30
2016,08,20,12,40,25.30
2016,08,20,12,41,25.20
2016,08,20,12,42,25.10
2016,08,20,12,43,25.10
2016,08,20,12,44,25.00
2016,08,20,12,45,25.00
2016,08,20,12,46,25.00
2016,08,20,12,47,25.00
2016,08,20,12,48,25.00
2016,08,20,12,49,25.10
2016,08,20,12,50,25.10
2016,08,20,12,51,25.20
2016,08,20,12,52,25.20
2016,08,20,12,53,25.30
2016,08,20,12,54,25.20
2016,08,20,12,55,25.20
2016,08,20,12,56,25.20
2016,08,20,12,57,25.20
2016,08,20,12,58,25.30
2016,08,20,12,59,25.30
2016,08,20,13,00,25.30
2016,08,20,13,01,25.40
2016,08,20,13,02,25.50
2016,08,20,13,03,25.50
2016,08,20,13,04,25.50
2016,08,20,13,05,25.50
2016,08,20,13,06,25.50
2016,08,20,13,07,25.50
2016,08,20,13,08,25.40
2016,08,20,13,09,25.40
2016,08,20,13,10,25.30
2016,08,20,13,11,25.20
2016,08,20,13,12,25.20
2016,08,20,13,13,25.20
2016,08,20,13,14,25.10
2016,08,20,13,15,25.10
2016,08,20,13,16,25.10
2016,08,20,13,17,25.10
2016,08,20,13,18,25.10
2016,08,20,13,19,25.00
2016,08,20,13,20,25.00
2016,08,20,13,21,25.00
2016,08,20,13,22,24.90
2016,08,20,13,23,24.90
2016,08,20,13,24,24.90
2016,08,20,13,25,24.80
2016,08,20,13,26,24.80
2016,08,20,13,27,24.90
2016,08,20,13,28,25.00
2016,08,20,13,29,25.20
2016,08,20,13,30,25.30
2016,08,20,13,31,25.30
2016,08,20,13,32,25.40
2016,08,20,13,33,25.50
2016,08,20,13,34,25.50
2016,08,20,13,35,25.50
2016,08,20,13,36,25.50
2016,08,20,13,37,25.50
2016,08,20,13,38,25.50
2016,08,20,13,39,25.50
2016,08,20,13,40,25.50
2016,08,20,13,41,25.50
2016,08,20,13,42,25.60
2016,08,20,13,43,25.60
2016,08,20,13,44,25.50
2016,08,20,13,45,25.50
2016,08,20,13,46,25.40
2016,08,20,13,47,25.40
2016,08,20,13,48,25.40
2016,08,20,13,49,25.40
2016,08,20,13,50,25.40
2016,08,20,13,51,25.40
2016,08,20,13,52,25.40
2016,08,20,13,53,25.40
2016,08,20,13,54,25.50
2016,08,20,13,55,25.50
2016,08,20,13,56,25.60
2016,08,20,13,57,25.60
2016,08,20,13,58,25.70
2016,08,20,13,59,25.70
2016,08,20,14,00,25.70
2016,08,20,14,01,25.70
2016,08,20,14,02,25.80
2016,08,20,14,03,25.80
2016,08,20,14,04,25.80
2016,08,20,14,05,25.90
2016,08,20,14,06,25.90
2016,08,20,14,07,25.90
2016,08,20,14,08,25.90
2016,08,20,14,09,25.90
2016,08,20,14,10,25.90
2016,08,20,14,11,25.80
2016,08,20,14,12,25.80
2016,08,20,14,13,25.80
2016,08,20,14,14,25.80
2016,08,20,14,15,25.80
2016,08,20,14,16,25.80
2016,08,20,14,17,25.80
2016,08,20,14,18,25.80
2016,08,20,14,19,25.90
2016,08,20,14,20,26.00
2016,08,20,14,21,26.10
2016,08,20,14,22,26.10
2016,08,20,14,23,26.20
2016,08,20,14,24,26.10
2016,08,20,14,25,26.10
2016,08,20,14,26,26.10
2016,08,20,14,27,26.10
2016,08,20,14,28,26.10
2016,08,20,14,29,26.20
2016,08,20,14,30,26.20
2016,08,20,14,31,26.30
2016,08,20,14,32,26.30
2016,08,20,14,33,26.30
2016,08,20,14,34,26.30
2016,08,20,14,35,26.30
2016,08,20,14,36,26.30
2016,08,20,14,37,26.30
2016,08,20,14,38,26.30
2016,08,20,14,39,26.30
2016,08,20,14,40,26.30
2016,08,20,14,41,26.30
2016,08,20,14,42,26.20
2016,08,20,14,43,26.20
2016,08,20,14,44,26.20
2016,08,20,14,45,26.20
2016,08,20,14,46,26.20
2016,08,20,14,47,26.20
2016,08,20,14,48,26.30
2016,08,20,14,49,26.40
2016,08,20,14,50,26.50
2016,08,20,14,51,26.60
2016,08,20,14,52,26.60
2016,08,20,14,53,26.70
2016,08,20,14,54,26.90
2016,08,20,14,55,27.00
2016,08,20,14,56,27.10
2016,08,20,14,57,27.20
2016,08,20,14,58,27.20
2016,08,20,14,59,27.30
2016,08,20,15,00,27.40
2016,08,20,15,01,27.50
2016,08,20,15,02,27.50
2016,08,20,15,03,27.60
2016,08,20,15,04,27.70
2016,08,20,15,05,27.80
2016,08,20,15,06,27.90
2016,08,20,15,07,27.90
2016,08,20,15,08,28.00
2016,08,20,15,09,28.10
2016,08,20,15,10,28.10
2016,08,20,15,11,28.20
2016,08,20,15,12,28.20
2016,08,20,15,13,28.20
2016,08,20,15,14,28.20
2016,08,20,15,15,28.30
2016,08,20,15,16,28.30
2016,08,20,15,17,28.30
2016,08,20,15,18,28.30
2016,08,20,15,19,28.30
2016,08,20,15,20,28.40
2016,08,20,15,21,28.50
2016,08,20,15,22,28.60
2016,08,20,15,23,28.60
2016,08,20,15,24,28.80
2016,08,20,15,25,28.90
2016,08,20,15,26,29.00
2016,08,20,15,27,29.20
2016,08,20,15,28,29.30
2016,08,20,15,29,29.50
2016,08,20,15,30,29.60
2016,08,20,15,31,29.70
2016,08,20,15,32,29.80
2016,08,20,15,33,29.90
2016,08,20,15,34,30.00
2016,08,20,15,35,30.00
2016,08,20,15,36,30.10
2016,08,20,15,37,30.10
2016,08,20,15,38,30.20
2016,08,20,15,39,30.20
2016,08,20,15,40,30.30
2016,08,20,15,41,30.30
2016,08,20,15,42,30.30
2016,08,20,15,43,30.40
2016,08,20,15,44,30.40
2016,08,20,15,45,30.40
2016,08,20,15,46,30.40
2016,08,20,15,47,30.30
2016,08,20,15,48,30.20
2016,08,20,15,49,30.10
2016,08,20,15,50,30.00
2016,08,20,15,51,30.00
2016,08,20,15,52,29.90
2016,08,20,15,53,29.80
2016,08,20,15,54,29.60
2016,08,20,15,55,29.50
2016,08,20,15,56,29.40
2016,08,20,15,57,29.30
2016,08,20,15,58,29.30
2016,08,20,15,59,29.30
2016,08,20,16,00,29.40
2016,08,20,16,01,29.40
2016,08,20,16,02,29.50
2016,08,20,16,03,29.60
2016,08,20,16,04,29.60
2016,08,20,16,05,29.70
2016,08,20,16,06,29.70
2016,08,20,16,07,29.80
2016,08,20,16,08,29.80
2016,08,20,16,09,29.80
2016,08,20,16,10,29.80
2016,08,20,16,11,29.70
2016,08,20,16,12,29.60
2016,08,20,16,13,29.70
2016,08,20,16,14,29.70
2016,08,20,16,15,29.70
2016,08,20,16,16,29.60
2016,08,20,16,17,29.60
2016,08,20,16,18,29.60
2016,08,20,16,19,29.70
2016,08,20,16,20,29.70
2016,08,20,16,21,29.70
2016,08,20,16,22,29.70
2016,08,20,16,23,29.80
2016,08,20,16,24,29.80
2016,08,20,16,25,29.80
2016,08,20,16,26,29.80
2016,08,20,16,27,29.80
2016,08,20,16,28,29.90
2016,08,20,16,29,29.90
2016,08,20,16,30,29.90
2016,08,20,16,31,29.90
2016,08,20,16,32,29.90
2016,08,20,16,33,30.00
2016,08,20,16,34,30.00
2016,08,20,16,35,30.00
2016,08,20,16,36,30.10
2016,08,20,16,37,30.10
2016,08,20,16,38,30.20
2016,08,20,16,39,30.30
2016,08,20,16,40,30.30
2016,08,20,16,41,30.40
2016,08,20,16,42,30.40
2016,08,20,16,43,30.50
2016,08,20,16,44,30.50
2016,08,20,16,45,30.60
2016,08,20,16,46,30.60
2016,08,20,16,47,30.60
2016,08,20,16,48,30.70
2016,08,20,16,49,30.70
2016,08,20,16,50,30.80
2016,08,20,16,51,30.80
2016,08,20,16,52,30.80
2016,08,20,16,53,30.80
2016,08,20,16,54,30.80
2016,08,20,16,55,30.60
2016,08,20,16,56,30.50
2016,08,20,16,57,30.30
2016,08,20,16,58,30.10
2016,08,20,16,59,29.90
2016,08,20,17,00,29.80
2016,08,20,17,01,29.70
2016,08,20,17,02,29.70
2016,08,20,17,03,29.60
2016,08,20,17,04,29.50
2016,08,20,17,05,29.50
2016,08,20,17,06,29.50
2016,08,20,17,07,29.50
2016,08,20,17,08,29.40
2016,08,20,17,09,29.40
2016,08,20,17,10,29.40
2016,08,20,17,11,29.30
2016,08,20,17,12,29.30
2016,08,20,17,13,29.20
2016,08,20,17,14,29.20
2016,08,20,17,15,29.20
2016,08,20,17,16,29.10
2016,08,20,17,17,29.10
2016,08,20,17,18,29.10
2016,08,20,17,19,29.10